GAOFEN-1 04

Last updated on Fri Dec 19 2025 00:02:34 GMT+0000 (Coordinated Universal Time)

1 43262U 18031D 25352.64258234 .00000444 00000+0 71306-4 0 9993 2 43262 98.0807 50.4809 0000842 61.7286 298.4008 14.76461040416040
UTC large
Height (km)
Speed (km/s)
/
Latitude / Longitude
Inclination (degrees)
Orbital Period (minutes)
Azimuth
Elevation
Range (km)
Doppler Factor

Next 0 passes for location: London (51.5072 / 0.1276)

Sorry there are no passes over London.